FORMOSAT-3 FM6 (29047 NORAD) Tracking and Keplerian Element Data

This shows tracking and keplerian element data for the satellite.

Feedback or suggestion? Click here.




ElementValue
Catalog29047
NameFORMOSAT-3 FM6
Epoch Orbit65902
Epoch Day323.09231621
Epoch Year2018
RAAN206.2742
Inclination71.9788
Eccentricity0.0051239
Argument of Perigee333.7886
Mean Anonmoly26.0657
Mean Motion14.28657836
Decay Rate4E-07
L11 29047U 06011A 18323.09231621 .00000040 00000-0 32245-4 0 9995
L22 29047 71.9788 206.2742 0051239 333.7886 26.0657 14.28657836659023

Live tracking and technical data element details for FORMOSAT-3 FM6 (NORAD 29047). FORMOSAT-3 FM6 can be tracked NOW for your location showing map with azimuth and elevation plus other details from your city location.

Track the satellite on the map from your city or location and see movement details for azimuth, elevation, latitude, longitude, range, height, and movement on the map or in text.







IsCatalogInMostPopularTable: catalog: 29047, numindb: 45
Update: records affected: 1



GetName: 29047 FORMOSAT-3 FM6

Hit Count: updated at: Tue, 20 Nov 2018 00:59:59 GMT